IUS R/B(1), 19549

Orbit data source: Space-Track

IUS R/B(1), 19549 is space debris in HEO originally from a launch on Thu, 29 Sep 1988 UTC launched from the Air Force Eastern Test Range (AFETR). Debris objects in space refer to the collection of defunct objects orbiting the Earth. Examples of debris include non-operational satellites, rocket bodies, and fragments generated from explosions, collisions, or faulty payload assembly.

Loading next visibility...
Identifier
19549, 1988-091C
Orbit
HEO
Country
Flag of USUS
Related business
Manufacturer
UTC CSD
Mission
Spacecraft
Bus & Motor
ORBUS 21, Unknown motor
Mass
~1,164 kg wet, ~1,164 kg dry
Launch date (UTC)
1988-09-29 (37 years ago)
Launch vehicle
Unknown
Launch site
Air Force Eastern Test Range (AFETR)
Object type
Payload
Rocket body
Debris
Shape & HBR
Cyl, Unknown HBR
Radar Cross Section
7.708 m², Large (>1 m²)

Expand to show TLE details & history
Last TLE update: 9 hours ago

TLE from 9 hours ago
0 IUS R/B(1)
1 19549U 88091C   26061.77747377  .00002663  00000-0  12896-2 0  9993
2 19549  26.6637 310.8046 6782300 115.3993 326.9201  2.90025302353376
Epoch: 2026-03-02T18:39Z
TLE epoch observation values (Epoch: 2026-03-02T18:39:33.733Z)
Latitude
Longitude
-129.58761°
Altitude
9,442.515 km
Speed
5.585 km/s
True Right ascension
20h 43m 28s
True Declination
0° 00' 00"
Sunlit
Object was in daylight at epoch
Visualization orbit readout
Latitude
Unknown
Longitude
Unknown
Altitude
Unknown
Speed
Unknown
Apparent Right ascension
Unknown
Apparent Declination
Unknown
Sunlit
N/A
Visualization observer readout
Local Sidereal Time
07:19:26
Azimuth
Unknown
Elevation
Unknown
Doppler factor
Unknown
Orbital elements
Apogee altitude
28,485.63 km
Perigee altitude
306.355 km
Semi-major axis
20,774.129 km
Eccentricity
0.67823
Inclination
26.6637°
RAAN
310.8046°
Arg. of periapsis
115.3993°
True anomaly
244.54631°
Mean anomaly
326.9201°
Eccentric anomaly
290.52792°
Mean motion
0.72487 °/min
Orbital period
496.64 mins
BSTAR
0.0012896
Loading maneuver chart data...
Computing Atmospheric mass density...
Loading historical data...
Loading historical data...
Loading historical data...
Loading historical data...
Loading historical data...
Loading historical data...
Loading historical data...
Other satellites on launch #91 in the year 1988 (1988-09-29 UTC)

Documentation

Showing up to 5 results
|